Vertical_Velocity
1 0 -0 2 -0 -1 1 -2 -2 -3 -3 -4 -8 -5 -1 -5 -1 -2 0 0 -3 -4 -2 -3 -4 0 -1 -1 -4 -11 -10 0
-1 -2 -2 0 -1 -2 -5 -3 -3 1 5 4 3 2 0 -2 -2 -6 -6 -7 -3 -1 2 2 -0 -3 -1 1 7 5 -3 -2
-4 -3 -3 -2 -1 -3 -1 -3 -0 1 -2 -3 1 -0 -4 -6 -7 -8 -8 -6 -3 -3 1 1 4 3 -2 -2 -1 6 -10 -10
-4 -5 -3 -4 -2 -2 -2 -1 1 -2 -0 -0 -3 -5 -4 -1 0 1 2 1 -2 -2 -2 -2 -1 -2 -1 -0 3 2 5 -5
-5 -5 -2 -2 -1 -2 -1 -1 -1 0 0 -1 -4 -6 -4 -8 -7 -8 -6 -2 -5 -3 -2 -1 -2 -2 -2 -2 0 2 -0 1
-5 -4 -2 -2 -0 -3 -2 1 -2 -2 -2 -2 -4 -2 -5 -5 -4 -6 -4 -8 -5 -3 -3 -1 -0 -1 -3 -0 0 -2 -3 -2
-4 -4 -2 -4 -2 -4 -1 -2 -1 1 -3 -4 -5 -4 -3 -0 2 2 -2 -2 -0 -4 -5 -4 -3 -1 0 2 -0 -2 2 3
-2 -1 1 -3 -3 -2 0 -0 -1 -2 -4 -3 -3 -4 -0 -1 -3 -1 3 1 3 3 0 1 1 1 -0 1 -0 -2 -2 1
-2 -0 -1 -3 -0 0 -0 1 -2 -5 -1 -1 -1 -0 -0 -2 -2 -1 -4 -2 -2 -2 -1 -3 -3 -1 -3 -3 -4 -0 -3 -3
-4 -1 -1 -1 -0 -1 -1 -3 -3 -1 -1 -1 -1 -3 -1 2 -1 1 2 -5 -1 -2 -2 -4 -1 -2 -2 -2 -0 -1 -2 -3
-3 0 0 -1 -1 -3 -4 -0 2 1 -1 -4 -2 1 3 -0 0 1 -1 -3 -5 0 1 -2 -3 -1 -3 -1 -5 -4 -2 -3
-0 -0 -0 -2 -2 -4 -2 1 -1 -2 -2 -2 1 -2 -2 1 0 -1 -2 -2 -3 -3 -1 -1 0 -2 -1 -5 -5 -3 -1 -3
1 0 -1 -1 -2 -1 1 -1 -1 -1 -1 2 1 -0 -1 -2 -1 -1 1 -1 -3 -1 -2 -1 -2 -3 -4 -2 -4 -3 -2 -1
-0 -1 -2 0 -1 -0 -2 -2 1 1 0 -2 -2 -4 -1 -0 -0 -0 2 -1 -1 -2 -2 -1 -1 0 -2 -4 -4 -4 -3 1
-3 -1 -0 -1 -2 -1 -0 -0 1 -2 -1 -3 -2 -2 -2 -1 1 -0 1 0 0 -3 -2 -2 -2 -1 -1 -4 -2 -2 -2 -1
-1 -3 -1 -1 -0 1 2 0 -3 -2 1 0 2 2 0 -2 -3 -2 -1 -1 -1 -2 -3 -4 -3 -2 -1 -2 -2 -1 -0 -1
-1 -1 -0 0 -1 -0 -1 -1 -1 -0 -1 -4 -2 -1 -1 0 -2 -2 0 -1 -2 -2 -3 -2 -3 -2 -3 -1 0 -0 -1 -1
0 -1 -1 -0 -2 -2 -1 -1 -2 -2 -4 -1 0 1 -0 1 -1 -2 -1 -1 -0 -2 -1 -2 1 -4 -3 -4 -3 -0 0 0
0 -2 -2 -2 -1 1 -0 -1 -0 -1 -3 -1 -2 -1 -1 -1 -1 -2 -1 1 1 0 -1 1 -2 -5 -6 -5 -2 -1 -0 1
Height
5832 5826 5820 5815 5808 5800 5792 5783 5774 5765 5755 5747 5738 5727 5715 5704 5693 5680 5668 5657 5645 5633 5621 5613 5606 5602 5595 5590 5584 5577 5573 5567
5829 5822 5816 5810 5803 5793 5785 5777 5767 5758 5749 5741 5730 5719 5708 5696 5683 5670 5658 5645 5632 5621 5610 5602 5595 5590 5585 5580 5574 5567 5560 5555
5824 5816 5809 5804 5795 5787 5778 5768 5759 5751 5743 5732 5721 5709 5698 5685 5672 5658 5645 5632 5621 5611 5601 5592 5586 5579 5574 5569 5563 5557 5548 5543
5818 5810 5804 5796 5788 5780 5770 5761 5752 5744 5734 5722 5710 5698 5685 5673 5660 5649 5638 5626 5613 5601 5591 5582 5576 5569 5564 5559 5553 5547 5539 5530
5812 5805 5797 5789 5781 5772 5763 5754 5745 5735 5724 5713 5702 5692 5679 5666 5652 5640 5627 5615 5603 5591 5581 5573 5566 5560 5554 5548 5543 5536 5529 5521
5806 5797 5789 5782 5774 5765 5756 5747 5737 5726 5715 5704 5694 5681 5667 5654 5641 5627 5615 5604 5593 5582 5573 5564 5558 5551 5545 5539 5533 5526 5519 5511
5799 5791 5783 5776 5767 5757 5748 5738 5728 5717 5707 5696 5683 5671 5658 5644 5632 5620 5608 5597 5585 5575 5565 5557 5550 5543 5536 5530 5523 5516 5508 5500
5792 5785 5777 5769 5759 5750 5741 5731 5720 5710 5699 5686 5674 5662 5649 5637 5624 5612 5600 5588 5576 5567 5558 5549 5541 5534 5527 5520 5512 5504 5496 5489
5787 5779 5771 5763 5753 5743 5734 5723 5713 5702 5690 5678 5666 5653 5639 5627 5614 5601 5590 5578 5568 5558 5549 5540 5532 5525 5517 5509 5500 5492 5484 5477
5781 5773 5766 5757 5747 5737 5727 5717 5705 5693 5681 5670 5657 5643 5630 5617 5604 5591 5580 5569 5559 5549 5540 5532 5523 5515 5507 5498 5490 5481 5473 5465
5774 5767 5759 5749 5739 5730 5719 5707 5696 5685 5673 5660 5646 5633 5620 5608 5596 5583 5572 5561 5550 5541 5532 5523 5514 5506 5497 5487 5477 5468 5460 5452
5768 5761 5752 5741 5731 5720 5709 5699 5689 5676 5663 5649 5635 5623 5612 5601 5589 5576 5563 5552 5543 5534 5525 5516 5506 5497 5486 5475 5465 5455 5446 5437
5762 5753 5742 5733 5723 5712 5702 5692 5680 5667 5654 5640 5628 5617 5605 5593 5581 5568 5556 5545 5536 5526 5517 5508 5497 5486 5475 5462 5450 5440 5430 5421
5753 5743 5735 5725 5715 5706 5695 5684 5671 5658 5645 5633 5620 5608 5596 5584 5572 5561 5549 5539 5529 5520 5510 5500 5488 5476 5462 5448 5435 5424 5414 5407
5744 5736 5727 5718 5709 5699 5687 5675 5662 5650 5638 5624 5612 5600 5588 5577 5565 5555 5544 5534 5523 5513 5503 5491 5479 5464 5449 5436 5424 5414 5406 5399
5737 5729 5720 5711 5702 5691 5678 5666 5654 5640 5627 5616 5604 5592 5581 5569 5559 5548 5538 5528 5518 5507 5495 5483 5469 5454 5442 5432 5422 5412 5403 5396
5730 5721 5712 5704 5694 5682 5670 5656 5643 5632 5620 5609 5597 5585 5574 5563 5553 5543 5533 5523 5513 5501 5489 5475 5461 5450 5441 5431 5422 5412 5403 5394
5723 5713 5704 5696 5684 5673 5660 5648 5636 5625 5614 5603 5591 5580 5569 5558 5549 5539 5529 5519 5509 5497 5483 5471 5460 5450 5440 5430 5420 5410 5401 5393
5714 5705 5697 5686 5675 5664 5652 5641 5629 5618 5607 5597 5585 5575 5564 5554 5545 5536 5526 5517 5506 5493 5480 5470 5460 5449 5438 5428 5418 5409 5401 5394